CEB326 RPVE-RPMY

Flight info

Callsign CEB326
Flight time N/A
Altitude 32000
Route KLO8A KLO DCT LAMBO B472 IOO W7 SIKIN SIKIN4A
Aircraft A320/M-SDE3FGHIRWY/LB1

Departure

Time 2026-04-25 16:58
Airport Godofredo P. Ramos Airport (RPVE)

Arrival

Time N/A
Airport Laguindingan International Airport (RPMY)
Time Latitude Longitude Altitude Speed Heading
2026-04-25 16:45 11.92639 121.96303 26 ft 0 kts 153°
2026-04-25 16:52 11.92638 121.96304 26 ft 0 kts 153°
2026-04-25 16:52 11.92652 121.96296 26 ft 2 kts 153°
2026-04-25 16:53 11.92685 121.96291 26 ft 0 kts 210°
2026-04-25 16:54 11.92681 121.96285 26 ft 2 kts 229°
2026-04-25 16:54 11.92661 121.96250 25 ft 6 kts 244°
2026-04-25 16:54 11.92660 121.96211 27 ft 5 kts 301°
2026-04-25 16:54 11.92704 121.96170 26 ft 12 kts 334°
2026-04-25 16:55 11.92776 121.96136 28 ft 11 kts 334°
2026-04-25 16:55 11.92802 121.96083 26 ft 9 kts 249°
2026-04-25 16:55 11.92743 121.95968 27 ft 27 kts 241°
2026-04-25 16:55 11.92650 121.95789 27 ft 30 kts 242°
2026-04-25 16:56 11.92549 121.95594 27 ft 32 kts 243°
2026-04-25 16:56 11.92447 121.95381 25 ft 34 kts 243°
2026-04-25 16:56 11.92356 121.95197 25 ft 16 kts 243°
2026-04-25 16:56 11.92310 121.95105 29 ft 13 kts 241°
2026-04-25 16:57 11.92266 121.95052 27 ft 9 kts 213°
2026-04-25 16:57 11.92259 121.95037 27 ft 4 kts 271°
2026-04-25 16:57 11.92294 121.95077 26 ft 7 kts 63°
2026-04-25 16:57 11.92295 121.95078 26 ft 0 kts 63°
2026-04-25 16:58 11.92344 121.95174 25 ft 55 kts 62°
2026-04-25 16:58 11.92642 121.95772 27 ft 131 kts 63°
2026-04-25 16:58 11.93105 121.96704 559 ft 151 kts 63°
2026-04-25 16:58 11.93601 121.97668 1350 ft 155 kts 63°
2026-04-25 16:59 11.94116 121.98659 2052 ft 164 kts 63°
2026-04-25 16:59 11.94678 121.99765 2397 ft 187 kts 63°
2026-04-25 16:59 11.95303 122.01024 2732 ft 208 kts 64°
2026-04-25 16:59 11.95742 122.02458 3232 ft 223 kts 90°
2026-04-25 17:00 11.95312 122.04015 3875 ft 243 kts 120°
2026-04-25 17:00 11.94234 122.05447 4520 ft 260 kts 127°
2026-04-25 17:00 11.93073 122.06905 5426 ft 266 kts 127°
2026-04-25 17:00 11.91904 122.08367 6332 ft 271 kts 128°
2026-04-25 17:01 11.90699 122.09884 7187 ft 276 kts 128°
2026-04-25 17:01 11.89478 122.11429 8066 ft 280 kts 127°
2026-04-25 17:01 11.88245 122.12994 8940 ft 285 kts 127°
2026-04-25 17:01 11.87011 122.14565 9791 ft 289 kts 127°
2026-04-25 17:02 11.85727 122.16203 10379 ft 304 kts 127°
2026-04-25 17:02 11.84370 122.17932 10709 ft 324 kts 128°
2026-04-25 17:02 11.82936 122.19760 11357 ft 332 kts 128°
2026-04-25 17:02 11.81481 122.21615 12102 ft 337 kts 128°
2026-04-25 17:03 11.80007 122.23495 12858 ft 341 kts 128°
2026-04-25 17:03 11.78511 122.25403 13597 ft 346 kts 128°
2026-04-25 17:03 11.77000 122.27332 14247 ft 350 kts 128°
2026-04-25 17:03 11.75468 122.29284 14883 ft 354 kts 128°
2026-04-25 17:04 11.73915 122.31259 15528 ft 357 kts 128°
2026-04-25 17:04 11.72368 122.33224 16160 ft 361 kts 128°
2026-04-25 17:04 11.70705 122.35157 16779 ft 364 kts 137°
2026-04-25 17:04 11.68635 122.36687 17405 ft 368 kts 151°
2026-04-25 17:05 11.66246 122.37660 18018 ft 372 kts 165°
2026-04-25 17:05 11.61062 122.37881 19100 ft 379 kts 182°
2026-04-25 17:05 11.58417 122.37714 19647 ft 381 kts 182°
2026-04-25 17:06 11.55759 122.37546 20187 ft 384 kts 182°
2026-04-25 17:06 11.53070 122.37379 20726 ft 387 kts 182°
2026-04-25 17:06 11.50403 122.37211 21255 ft 389 kts 182°
2026-04-25 17:06 11.47684 122.37041 21777 ft 392 kts 182°
2026-04-25 17:07 11.44945 122.36871 22285 ft 395 kts 182°
2026-04-25 17:07 11.42179 122.36700 22773 ft 397 kts 182°
2026-04-25 17:07 11.39438 122.36532 23272 ft 400 kts 182°
2026-04-25 17:07 11.36641 122.36361 23720 ft 403 kts 182°
2026-04-25 17:08 11.33835 122.36188 24127 ft 405 kts 182°
2026-04-25 17:08 11.31003 122.36011 24531 ft 408 kts 183°
2026-04-25 17:08 11.28147 122.35834 24934 ft 410 kts 183°
2026-04-25 17:08 11.25318 122.35660 25328 ft 413 kts 183°
2026-04-25 17:09 11.22433 122.35484 25724 ft 415 kts 183°
2026-04-25 17:09 11.19562 122.35314 26117 ft 418 kts 181°
2026-04-25 17:09 11.16648 122.35478 26495 ft 421 kts 172°
2026-04-25 17:09 11.13787 122.36178 26852 ft 424 kts 161°
2026-04-25 17:10 11.11036 122.37314 27197 ft 428 kts 158°
2026-04-25 17:10 11.08286 122.38509 27538 ft 431 kts 158°
2026-04-25 17:10 11.05546 122.39699 27882 ft 434 kts 158°
2026-04-25 17:10 11.02757 122.40910 28225 ft 438 kts 158°
2026-04-25 17:11 10.99939 122.42127 28562 ft 440 kts 158°
2026-04-25 17:11 10.97107 122.43350 28858 ft 444 kts 158°
2026-04-25 17:11 10.91540 122.45753 28920 ft 418 kts 158°
2026-04-25 17:12 10.86263 122.48031 28915 ft 408 kts 158°
2026-04-25 17:12 10.81465 122.51021 28911 ft 409 kts 140°
2026-04-25 17:13 10.78591 122.53567 28910 ft 409 kts 140°
2026-04-25 17:13 10.72863 122.58636 28905 ft 409 kts 140°
2026-04-25 17:14 10.68583 122.62417 28901 ft 409 kts 140°
2026-04-25 17:14 10.64288 122.66202 28896 ft 408 kts 140°
2026-04-25 17:15 10.59993 122.69992 28896 ft 408 kts 140°
2026-04-25 17:15 10.56426 122.73136 28896 ft 408 kts 140°
2026-04-25 17:16 10.51442 122.77526 28894 ft 407 kts 140°
2026-04-25 17:16 10.47159 122.81300 28894 ft 407 kts 140°
2026-04-25 17:17 10.42882 122.85063 28896 ft 407 kts 140°
2026-04-25 17:17 10.39328 122.88196 28894 ft 407 kts 140°
2026-04-25 17:18 10.35057 122.91964 28893 ft 407 kts 140°
2026-04-25 17:18 10.30776 122.95728 28895 ft 406 kts 140°
2026-04-25 17:19 10.26499 122.99484 28904 ft 406 kts 140°
2026-04-25 17:19 10.22220 123.03242 28908 ft 406 kts 140°
2026-04-25 17:20 10.18316 123.06677 28914 ft 406 kts 140°
2026-04-25 17:20 10.14083 123.10406 28902 ft 406 kts 140°
2026-04-25 17:21 10.09806 123.14159 28911 ft 406 kts 140°
2026-04-25 17:21 10.05531 123.17907 28913 ft 405 kts 140°
2026-04-25 17:22 10.01984 123.21021 28911 ft 405 kts 140°
2026-04-25 17:22 9.97018 123.25369 28912 ft 405 kts 140°
2026-04-25 17:23 9.92754 123.29105 28917 ft 404 kts 139°
2026-04-25 17:23 9.88494 123.32839 28922 ft 404 kts 139°
2026-04-25 17:24 9.84273 123.36543 28920 ft 403 kts 139°
2026-04-25 17:24 9.80033 123.40263 28918 ft 402 kts 139°
2026-04-25 17:25 9.77917 123.42119 28714 ft 399 kts 139°
2026-04-25 17:25 9.75824 123.43949 28450 ft 396 kts 139°
2026-04-25 17:25 9.73737 123.45772 28191 ft 394 kts 139°
2026-04-25 17:25 9.71668 123.47580 27957 ft 391 kts 139°
2026-04-25 17:26 9.69611 123.49383 27701 ft 389 kts 139°
2026-04-25 17:26 9.67566 123.51176 27448 ft 387 kts 139°
2026-04-25 17:26 9.65558 123.52935 27211 ft 385 kts 139°
2026-04-25 17:26 9.63529 123.54705 26964 ft 383 kts 139°
2026-04-25 17:27 9.61511 123.56464 26721 ft 381 kts 139°
2026-04-25 17:27 9.59506 123.58216 26486 ft 380 kts 139°
2026-04-25 17:27 9.57511 123.59964 26247 ft 378 kts 139°
2026-04-25 17:27 9.56168 123.61141 26090 ft 377 kts 139°
2026-04-25 17:28 9.53541 123.63439 25778 ft 375 kts 139°
2026-04-25 17:28 9.51572 123.65158 25531 ft 371 kts 139°
2026-04-25 17:28 9.49619 123.66861 25086 ft 368 kts 139°
2026-04-25 17:28 9.47676 123.68556 24632 ft 367 kts 139°
2026-04-25 17:29 9.45745 123.70243 24136 ft 366 kts 139°
2026-04-25 17:29 9.43814 123.71929 23656 ft 366 kts 139°
2026-04-25 17:29 9.41908 123.73593 23124 ft 365 kts 139°
2026-04-25 17:29 9.39987 123.75273 22624 ft 363 kts 139°
2026-04-25 17:30 9.38079 123.76942 22158 ft 361 kts 139°
2026-04-25 17:30 9.36179 123.78600 21683 ft 359 kts 139°
2026-04-25 17:30 9.34290 123.80248 21219 ft 357 kts 139°
2026-04-25 17:30 9.32416 123.81884 20765 ft 355 kts 138°